This demonstration page uses our WeatherBlox Daily Observations layout. Learn more.

Left ArrowRight Arrow

Hourly Observations for November 22, 2019

Temp ( °F °C ) Dew Point ( °F °C ) Humidity (%) Winds ( mph kmh ) Pressure ( in mb ) Visibility ( mi km ) Precip ( " mm )
12:56 am 00:56 Cloudy 28 -2.2 21 -6.1 75 75 NNE 9 15 30.30 1026 10 16 0.00 0.00
1:56 am 01:56 Mostly Clear 27 -2.8 21 -6.1 78 78 N 9 15 30.30 1026 10 16 0.00 0.00
2:56 am 02:56 Clear 26 -3.3 21 -6.1 81 81 N 6 9 30.32 1027 10 16 0.00 0.00
3:56 am 03:56 Mostly Cloudy 26 -3.3 21 -6.1 81 81 N 7 11 30.31 1026 10 16 0.00 0.00
4:56 am 04:56 Clear 25 -3.9 21 -6.1 85 85 NNW 8 13 30.28 1026 10 16 0.00 0.00
5:56 am 05:56 Clear 25 -3.9 20 -6.7 81 81 NNW 7 11 30.28 1025 10 16 0.00 0.00
6:56 am 06:56 Mostly Clear 23 -5 20 -6.7 88 88 NNW 5 7 30.30 1026 10 16 0.00 0.00
7:56 am 07:56 Mostly Sunny 23 -5 19 -7.2 85 85 NW 5 7 30.32 1027 10 16 0.00 0.00
8:56 am 08:56 Sunny 24 -4.4 20 -6.7 84 84 NNE 3 6 30.32 1027 10 16 0.00 0.00
9:56 am 09:56 Mostly Sunny 25 -3.9 20 -6.7 81 81 Calm 30.32 1027 10 16 0.00 0.00
10:56 am 10:56 Mostly Sunny 27 -2.8 20 -6.7 75 75 Calm 30.30 1026 10 16 0.00 0.00
11:56 am 11:56 Cloudy 29 -1.7 21 -6.1 72 72 W 6 9 30.27 1025 10 16 0.00 0.00
12:56 pm 12:56 Cloudy 31 -0.6 21 -6.1 67 67 S 6 9 30.23 1024 10 16 0.00 0.00
1:56 pm 13:56 Mostly Cloudy 32 0 22 -5.6 66 66 SW 8 13 30.20 1023 10 16 0.00 0.00
2:56 pm 14:56 Partly Cloudy 34 1.1 21 -6.1 59 59 SW 10 17 30.17 1022 10 16 0.00 0.00
3:56 pm 15:56 Mostly Cloudy 33 0.6 25 -3.9 72 72 SSW 12 19 30.16 1021 10 16 0.00 0.00
4:56 pm 16:56 Cloudy 32 0 25 -3.9 75 75 WSW 8 13 30.16 1021 10 16 0.00 0.00
5:56 pm 17:56 Cloudy 31 -0.6 27 -2.8 85 85 WSW 8 13 30.15 1021 10 16 0.00 0.00
6:56 pm 18:56 Cloudy 32 0 27 -2.8 82 82 SW 7 11 30.14 1021 10 16 0.00 0.00
7:56 pm 19:56 Cloudy 31 -0.6 27 -2.8 85 85 SSW 6 9 30.14 1021 10 16 0.00 0.00
8:56 pm 20:56 Cloudy 31 -0.6 27 -2.8 85 85 S 6 9 30.12 1020 10 16 0.00 0.00
9:56 pm 21:56 Cloudy 31 -0.6 27 -2.8 85 85 SW 10 17 30.11 1020 10 16 0.00 0.00
10:56 pm 22:56 Clear 28 -2.2 26 -3.3 92 92 SW 7 11 30.08 1019 10 16 0.00 0.00
11:56 pm 23:56 Clear 27 -2.8 26 -3.3 96 96 SW 9 15 30.07 1018 10 16 0.00 0.00

Powered by AerisWeather